{"data":{"norad_id":62437,"intl_designator":"2024-251F","name":"STARLINK-32693","alt_names":[],"object_type":"PAYLOAD","status":"ACTIVE","operator":null,"country":"US","launch_date":"2024-12-29","launch_site_code":"AFWTR","launch_vehicle":null,"mission":null,"orbit_class":"UNKNOWN","rcs_meters":null,"size_class":null,"mass_kg":null,"dimensions":null,"purposes":["comms"],"wikipedia_slug":null,"has_3d_model":false,"image_url":null,"decayed_at":null,"tle_current":{"epoch":"2026-05-24T20:02:04.527168Z","epoch_age_seconds":88787,"freshness":"FRESH","line1":"1 62437U 24251F   26144.83477462  .00024802  00000+0  84683-3 0  9991","line2":"2 62437  53.1591 338.9137 0000941  76.3335 283.7771 15.30195710 79646","mean_motion":15.3019571,"eccentricity":9.41e-5,"inclination_deg":53.1591,"raan_deg":338.9137,"arg_perigee_deg":76.3335,"mean_anomaly_deg":283.7771,"bstar":0.00084683,"rev_number":7964,"period_min":94.105609536704,"perigee_km":474.5829769809,"apogee_km":475.87278025105,"semimajor_km":6853.364878616,"source":"CELESTRAK","updated_at":"2026-05-25T13:38:19.657827Z"}}}